Regional Weather Roundup
Issued by NWS

Home | Current Version | Previous Version | Text Only | Print | Product List | Glossary On
Versions: 1 2 3 4 5 6 7 8 9 10 11 12 13 14 15 16 17 18 19 20 21 22 23 24 25 26 27 28 29 30 31 32 33 34 35 36 37 38 39 40 41 42 43 44 45 46 47 48 49 50
000
ASUS46 KPQR 260810
RWROR

OREGON REGIONAL WEATHER ROUNDUP
NATIONAL WEATHER SERVICE PORTLAND OR
1200 AM PST FRI DEC 26 2014

NOTE: "FAIR" INDICATES FEW OR NO CLOUDS BELOW 12,000 FEET WITH
NO SIGNIFICANT WEATHER AND/OR OBSTRUCTIONS TO VISIBILITY.

ORZ001>013-260900-
NORTHWEST OREGON


CITY           SKY/WX    TMP DP  RH WIND       PRES   REMARKS
ASTORIA        CLOUDY    43  42  97 CALM      30.27F
NEWPORT        MOCLDY    45  43  93 E3        30.33S
PORTLAND       MOCLDY    43  42  97 E5        30.30F
VANCOUVER WA   CLOUDY    43  41  93 CALM      30.29F
SCAPPOOSE      CLOUDY    42  41  96 CALM      30.29S
HILLSBORO      CLOUDY    42  42 100 CALM      30.29S FOG
AURORA         CLOUDY    40  39  97 CALM      30.31F
MCMINNVILLE    CLOUDY    39  38  96 CALM      30.31F FOG
SALEM          CLOUDY    42  40  92 SE5       30.29F
CORVALLIS      CLOUDY    43  39  87 CALM      30.32S
EUGENE         CLOUDY    42  40  92 SE7       30.32S
$$

ORZ021-028-260900-
SOUTHWEST OREGON


CITY           SKY/WX    TMP DP  RH WIND       PRES   REMARKS
NORTH BEND     CLOUDY    43  43 100 S5        30.33F
BROOKINGS      CLEAR     45  38  76 VRB5      30.29F
ROSEBURG       CLOUDY    42  40  92 CALM      30.32S
SEXTON SUMMIT  FOG       31  31 100 CALM      30.21S VSB 1/4
MEDFORD        CLOUDY    37  34  89 CALM      30.30S
$$

ORZ014>016-041-260900-
COLUMBIA GORGE


CITY           SKY/WX    TMP DP  RH WIND       PRES   REMARKS
TROUTDALE      CLOUDY    43  40  89 CALM      30.29F
THE DALLES     CLEAR     41  35  79 W9        30.24F
$$

ORZ029>031-041-044-049-050-061>064-502-503-505>511-260900-
EASTERN OREGON


CITY           SKY/WX    TMP DP  RH WIND       PRES   REMARKS
REDMOND        MOCLDY    27  25  92 CALM      30.18S
BEND           PTCLDY    27  23  86 CALM      30.19S
PRINEVILLE     CLOUDY    34  28  80 W6        30.19S WCI  29
KLAMATH FALLS  MOCLDY    37  23  56 NW7       30.17F WCI  32
LAKEVIEW       CLOUDY    27  21  80 CALM      30.13F
HERMISTON      MOCLDY    33  30  88 SW3       30.22S
PENDLETON      CLOUDY    36  29  75 W12       30.18R WCI  28
JOHN DAY       MOCLDY    30  24  77 CALM      30.14F
MEACHAM        LGT SNOW  30  27  88 CALM      30.10F FOG
LA GRANDE      CLOUDY    32  25  74 CALM      30.13S
BAKER CITY     CLOUDY    27  25  92 S5        30.12  WCI  22
BURNS          CLOUDY    25  21  85 CALM      30.13S
ROME             N/A     30  19  63 W9        30.08S WCI  22
ONTARIO        CLOUDY    33  24  69 W6        30.14F WCI  28
$$


USA.gov is the U.S. government's official web portal to all federal, state and local government web resources and services.